Weather History for Billings, MT

Change the Weather History Date:

Wednesday, November 14, 2012

  Actual Average Record
Temperature  
Mean Temperature 41 °F 36 °F  
Max Temperature 48 °F 46 °F 70 °F (1999)
Min Temperature 34 °F 27 °F -10 °F (1955)
Degree Days  
Heating Degree Days 24 29  
Month to date heating degree days 354 359  
Since 1 July heating degree days 999 1111  
Cooling Degree Days 0 0  
Month to date cooling degree days 0 0  
Year to date cooling degree days 958 636  
Moisture  
Dew Point 26 °F    
Average Humidity 60    
Maximum Humidity 70    
Minimum Humidity 49    
Precipitation  
Precipitation T in 0.02 in 0.49 in (1961)
Month to date precipitation 0.32 0.30  
Year to date precipitation 6.54 12.83  
Snow  
Snow 0.00 in 0.20 in 4.70 in (1961)
Month to date snowfall 4.3 2.6  
Since 1 July snowfall 8.4 7.8  
Since 1 September snowfall 8.4 7.8  
Snow Depth T in    
Sea Level Pressure  
Sea Level Pressure 30.16 in    
Wind  
Wind Speed 12 mph (WSW)    
Max Wind Speed 20 mph    
Max Gust Speed 23 mph    
Visibility 10 miles    
Events      
T = Trace of Precipitation, MM = Missing Value Source: NWS Daily Summary

Daily Weather History Graph

Daily Weather History Graph

Search for Another Location

Airport:

Trip Planner

Search our weather history database for the weather conditions in past years. The results will help you decide how hot, cold, wet, or windy it might be!

Date:

Astronomy

Nov. 14, 2012 Rise Set
Actual Time 7:13 AM MST 4:43 PM MST
Civil Twilight 6:41 AM MST 5:15 PM MST
Nautical Twilight 6:05 AM MST 5:51 PM MST
Astronomical Twilight 5:29 AM MST 6:26 PM MST
Moon 8:09 AM MST (11/14) 5:31 PM MST (11/14)
Length of Visible Light 10h 34m
Length of Day
9h 29m
New Moon, 1% of the Moon is Illuminated
Nov 14
New Moon
Nov 20
First Quarter
Nov 28
Full
Dec 6
Last Quarter
Dec 13
New

Hourly Weather History & Observations

Time (MST) Temp. Windchill Dew Point Humidity Pressure Visibility Wind Dir Wind Speed Gust Speed Precip Events Conditions
12:53 AM 37.0 °F 29.3 °F 23.0 °F 57% 30.15 in 10.0 mi SW 11.5 mph - N/A   Clear
1:53 AM 37.0 °F 28.1 °F 23.0 °F 57% 30.13 in 10.0 mi WSW 15.0 mph - N/A   Clear
2:53 AM 39.0 °F 30.3 °F 23.0 °F 53% 30.13 in 10.0 mi WSW 16.1 mph - N/A   Scattered Clouds
3:53 AM 39.0 °F 32.8 °F 23.0 °F 53% 30.12 in 10.0 mi WSW 9.2 mph - N/A   Partly Cloudy
4:53 AM 37.0 °F 30.4 °F 24.1 °F 59% 30.13 in 10.0 mi SSW 9.2 mph - N/A   Overcast
5:53 AM 36.0 °F 29.0 °F 26.1 °F 67% 30.12 in 10.0 mi SSW 9.2 mph - 0.00 in   Overcast
6:53 AM 36.0 °F 26.3 °F 25.0 °F 64% 30.11 in 10.0 mi WSW 16.1 mph - N/A   Mostly Cloudy
7:53 AM 35.1 °F 25.9 °F 25.0 °F 67% 30.12 in 10.0 mi SW 13.8 mph - N/A   Mostly Cloudy
8:53 AM 37.0 °F 27.7 °F 25.0 °F 62% 30.12 in 10.0 mi WSW 16.1 mph - N/A   Scattered Clouds
9:53 AM 41.0 °F 34.3 °F 26.1 °F 55% 30.13 in 10.0 mi SW 11.5 mph - N/A   Mostly Cloudy
10:53 AM 43.0 °F 35.4 °F 27.0 °F 53% 30.12 in 10.0 mi SW 16.1 mph - N/A   Scattered Clouds
11:53 AM 45.0 °F 39.7 °F 28.0 °F 52% 30.11 in 10.0 mi SW 10.4 mph - N/A   Mostly Cloudy
12:53 PM 46.0 °F 39.9 °F 28.0 °F 50% 30.09 in 10.0 mi SW 13.8 mph - N/A   Mostly Cloudy
1:53 PM 46.9 °F - 28.9 °F 50% 30.10 in 10.0 mi WSW 12.7 mph - N/A   Mostly Cloudy
2:53 PM 48.0 °F - 30.0 °F 50% 30.10 in 10.0 mi WSW 10.4 mph - N/A   Mostly Cloudy
3:53 PM 46.9 °F - 30.0 °F 52% 30.12 in 10.0 mi West 10.4 mph - N/A   Mostly Cloudy
4:53 PM 46.9 °F - 30.0 °F 52% 30.14 in 10.0 mi WNW 10.4 mph - N/A   Mostly Cloudy
5:53 PM 43.0 °F 36.0 °F 28.9 °F 58% 30.18 in 10.0 mi WNW 13.8 mph - N/A   Scattered Clouds
6:53 PM 42.1 °F 34.5 °F 26.1 °F 53% 30.21 in 10.0 mi WNW 15.0 mph - N/A   Partly Cloudy
7:53 PM 41.0 °F 33.5 °F 24.1 °F 51% 30.23 in 10.0 mi WNW 13.8 mph - N/A   Partly Cloudy
8:53 PM 37.0 °F 30.4 °F 24.1 °F 59% 30.26 in 10.0 mi WSW 9.2 mph - N/A   Clear
9:53 PM 37.0 °F 31.0 °F 24.1 °F 59% 30.27 in 10.0 mi West 8.1 mph - N/A   Partly Cloudy
10:53 PM 37.9 °F 34.4 °F 24.1 °F 57% 30.29 in 10.0 mi South 4.6 mph - N/A   Mostly Cloudy
11:53 PM 36.0 °F 30.3 °F 25.0 °F 64% 30.30 in 10.0 mi WSW 6.9 mph - N/A   Mostly Cloudy